Regional Weather Roundup
Issued by NWS

Home | Current Version | Previous Version | Text Only | Print | Product List | Glossary Off
Versions: 1 2 3 4 5 6 7 8 9 10 11 12 13 14 15 16 17 18 19 20 21 22 23 24 25 26 27 28 29 30 31 32 33 34 35 36 37 38 39 40 41 42 43 44 45 46 47 48 49 50

000
ASUS43 KLMK 210702
RWRKY
KENTUCKY REGIONAL WEATHER ROUNDUP
NATIONAL WEATHER SERVICE LOUISVILLE KY
300 AM EDT THU SEP 21 2017

NOTE "FAIR" INDICATES FEW OR NO CLOUDS BELOW 12,000 FEET
WITH NO SIGNIFICANT WEATHER AND/OR OBSTRUCTIONS TO VISIBILITY.

KYZ001>023-026-027-061>063-070>075-210800-
WESTERN AND SOUTH CENTRAL KENTUCKY

CITY           SKY/WX    TMP DP  RH WIND       PRES   REMARKS
PADUCAH        PTCLDY    77  70  79 S5        29.99S
HENDERSON      CLEAR     71  69  93 S3        30.01R
OWENSBORO      CLEAR     73  70  90 CALM      30.02S
HOPKINSVILLE   CLEAR     73  71  93 CALM      30.02S
BOWLING GREEN  CLEAR     69  69 100 CALM      30.04S FOG
GLASGOW        CLEAR    N/A N/A N/A CALM      30.05S HAZE
$$

KYZ024-025-028>034-038-045-046-053-210800-
NORTH CENTRAL KENTUCKY

CITY           SKY/WX    TMP DP  RH WIND       PRES   REMARKS
LOUISVILLE/SDF PTCLDY    73  70  90 E3        30.04R
LOUISVILLE/LOU CLEAR     70  70 100 CALM      30.05R
FORT KNOX      CLEAR     69  69 100 CALM      30.03S
$$

KYZ035>037-039>044-047>052-055>060-089>105-210800-
NORTHEAST KENTUCKY

CITY           SKY/WX    TMP DP  RH WIND       PRES   REMARKS
LEXINGTON      CLEAR     68  65  90 SE3       30.07R
COVINGTON      CLEAR     69  69 100 CALM      30.06R
FRANKFORT      CLEAR     67  64  90 CALM      30.06R
$$

KYZ054-064>069-076>088-106>120-210800-
SOUTHEAST KENTUCKY

CITY           SKY/WX    TMP DP  RH WIND       PRES   REMARKS
JACKSON        CLEAR     68  65  90 CALM      30.09R
LONDON         FOG       66  65  96 CALM      30.09R VSB 1
SOMERSET       CLEAR     64  64 100 CALM      30.09R FOG
MIDDLESBORO    MOCLDY    63  63 100 CALM      30.11R FOG
MONTICELLO     FOG       62  62 100 W8        30.09R VSB 1/4
$$





USA.gov is the U.S. government's official web portal to all federal, state and local government web resources and services.